Regional Weather Roundup
Issued by NWS

Home | Current Version | Previous Version | Graphics & Text | Print | Product List | Glossary On
Versions: 1 2 3 4 5 6 7 8 9 10 11 12 13 14 15 16 17 18 19 20 21 22 23 24 25 26 27 28 29 30 31 32 33 34 35 36 37 38 39 40 41 42 43 44 45 46 47 48 49 50
213
ASUS45 KSLC 280010
RWRUT

UTAH REGIONAL WEATHER ROUNDUP
NATIONAL WEATHER SERVICE SALT LAKE CITY UT
600 PM MDT SAT MAY 27 2017

UTZ001>011-023>025-280100-

NORTHERN UTAH

CITY           SKY/WX    TMP DP  RH WIND       PRES   REMARKS
BRIGHAM CITY   MOSUNNY   71  27  19 N5        30.21R
HILL AFB       SUNNY     68  36  30 W13       30.21S
LOGAN          MOSUNNY   67  36  31 NW7       30.21R
OGDEN          SUNNY     69  35  28 W13       30.20S
SALT LAKE CITY MOSUNNY   70  35  27 NW5       30.20S
TOOELE VALLEY  SUNNY     66  32  28 N3        30.23R
WENDOVER       SUNNY     72  24  16 SE7       30.21S
HEBER CITY     SUNNY     68  30  24 N9        30.20R
WEST JORDAN    SUNNY     65  44  45 NW12G18   30.22S

$$

UTZ011>015-024>027-280100-

CENTRAL/NORTHEAST UTAH

CITY           SKY/WX    TMP DP  RH WIND       PRES   REMARKS
PROVO AIRPORT  MOSUNNY   68  37  32 NW12G17   30.20S
MOAB/CANYONLAN SUNNY     78  21  12 MISG      30.06S
DELTA          SUNNY     72  23  16 N8G23     30.17S
PRICE          MOSUNNY   71  24  17 NW8       30.16S
ROOSEVELT      SUNNY     70  28  21 E9        30.18S
VERNAL         PTSUNNY   67  26  21 VRB3      30.17R

$$

UTZ013>016-019>022-027-280100-

SOUTHERN UTAH

CITY           SKY/WX    TMP DP  RH WIND       PRES   REMARKS
BRYCE CANYON   SUNNY     66  16  14 NW13      30.23S
CEDAR CITY     SUNNY     72  18  13 N10       30.16S
MILFORD        SUNNY     73  24  16 NE18G24   30.16S
ST GEORGE      CLEAR     85  26  11 W3        29.98S
HANKSVILLE     SUNNY     79  19  11 NE5       30.07S
BLANDING       SUNNY     71  20  14 N9        30.19R

$$

REGIONAL REPORTS     COLORADO/ARIZONA

CITY           SKY/WX    TMP DP  RH WIND       PRES   REMARKS
CRAIG, CO      CLOUDY    59  24  26 NW14G21   30.23R
GRAND JUNCTION LGT RAIN  71  29  21 NE14      30.11R
RIFLE, CO      MOSUNNY   67  29  24 N13G21    30.17R
MONTROSE, CO   MOSUNNY   67  25  20 N12       30.14R
CORTEZ, CO     SUNNY     71  19  14 N8        30.10S
COLORADO CITY    N/A     81  30  16 NW13G18   30.12S
PAGE, AZ       MOSUNNY   83  29  14 N8        30.02S
GRAND CANYON   PTSUNNY   71  23  16 NW7       30.18S
KINGMAN, AZ    SUNNY     86  26  11 W12G20    30.00F
FLAGSTAFF, AZ  MOSUNNY   71  18  13 W12G20    30.18S

$$

REGIONAL REPORTS    NEVADA/IDAHO/WYOMING

CITY           SKY/WX    TMP DP  RH WIND       PRES   REMARKS
LAS VEGAS, NV  MOSUNNY   89  21   8 VRB3      29.92F
ELY, NY        SUNNY     69  22  16 MISG      30.21S
ELKO, NV       SUNNY     73  25  16 NE5       30.19F
POCATELLO, ID  MOSUNNY   68  33  27 NW8       30.24S
BURLEY, ID     SUNNY     69  34  27 CALM      30.20F
FORT BRIDGER,  CLOUDY    63  27  25 NW17      30.30S
EVANSTON, WY   SUNNY     59  24  26 N6        30.30R
ROCK SPRINGS,  SUNNY     61  21  21 NW12      30.25R
KEMMERER, WY     N/A     55  27  33 W13G24    30.29R

$$




USA.gov is the U.S. government's official web portal to all federal, state and local government web resources and services.